• In India
  • List of Countries
  • For 7 days
  • Water Temperature
  • Satellite Maps
  • Weather Map
  • Weather Widgets
  • user-avatar
    Login

    Hourly Weather El Tambo

    Today, 25 May, Friday

    Time Temperature Precipitation Wind Pressure Humidity
    00:00 +13°C° 0.4 mm 1 mps 583 mmHg 86%
    01:00 +13°C° 0 mm 1 mps 583 mmHg 84%
    02:00 +13°C° 0.2 mm 1 mps 583 mmHg 85%
    03:00 +13°C° 0.2 mm 1 mps 583 mmHg 85%
    04:00 +13°C° 0.2 mm 1 mps 583 mmHg 86%
    05:00 +13°C° 0.2 mm 1 mps 583 mmHg 85%
    06:00 +14°C° 0.2 mm 1 mps 583 mmHg 85%
    07:00 +14°C° 0.2 mm 1 mps 584 mmHg 85%
    08:00 +15°C° 0.3 mm 1 mps 584 mmHg 80%
    09:00 +17°C° 0.3 mm 2 mps 585 mmHg 75%
    10:00 +18°C° 0.3 mm 2 mps 586 mmHg 70%
    11:00 +18°C° 0.4 mm 2 mps 585 mmHg 70%
    12:00 +18°C° 0.4 mm 2 mps 585 mmHg 71%
    13:00 +18°C° 0.4 mm 2 mps 585 mmHg 71%
    14:00 +18°C° 0.6 mm 2 mps 584 mmHg 73%
    15:00 +18°C° 0.6 mm 2 mps 584 mmHg 75%
    16:00 +17°C° 0.6 mm 2 mps 583 mmHg 77%
    17:00 +16°C° 0.4 mm 2 mps 583 mmHg 81%
    18:00 +15°C° 0.4 mm 2 mps 583 mmHg 85%
    19:00 +14°C° 0.4 mm 1 mps 582 mmHg 90%
    20:00 +14°C° 0.1 mm 1 mps 583 mmHg 89%
    21:00 +14°C° 0.1 mm 1 mps 583 mmHg 88%
    22:00 +13°C° 0.1 mm 2 mps 583 mmHg 87%
    23:00 +13°C° 0 mm 2 mps 583 mmHg 86%

    Tomorrow, 26 May, Saturday

    Time Temperature Precipitation Wind Pressure Humidity
    00:00 +13°C° 0 mm 1 mps 583 mmHg 86%
    01:00 +13°C° 0 mm 1 mps 583 mmHg 86%
    02:00 +13°C° 0.1 mm 1 mps 582 mmHg 86%
    03:00 +13°C° 0.1 mm 1 mps 582 mmHg 86%
    04:00 +13°C° 0.1 mm 1 mps 582 mmHg 86%
    05:00 +13°C° 0.1 mm 1 mps 582 mmHg 86%
    06:00 +14°C° 0.1 mm 1 mps 583 mmHg 85%
    07:00 +14°C° 0.1 mm 1 mps 583 mmHg 85%
    08:00 +15°C° 0.1 mm 1 mps 584 mmHg 83%
    09:00 +15°C° 0.1 mm 2 mps 584 mmHg 81%
    10:00 +16°C° 0.1 mm 2 mps 585 mmHg 79%
    11:00 +16°C° 0.5 mm 2 mps 585 mmHg 79%
    12:00 +17°C° 0.5 mm 2 mps 584 mmHg 79%
    13:00 +17°C° 0.5 mm 2 mps 584 mmHg 78%
    14:00 +17°C° 1.1 mm 2 mps 584 mmHg 80%
    15:00 +16°C° 1.1 mm 2 mps 583 mmHg 81%
    16:00 +16°C° 1.1 mm 2 mps 582 mmHg 82%
    17:00 +15°C° 0.6 mm 2 mps 582 mmHg 85%
    18:00 +15°C° 0.6 mm 1 mps 582 mmHg 88%
    19:00 +14°C° 0.6 mm 1 mps 582 mmHg 92%
    20:00 +13°C° 0.3 mm 1 mps 582 mmHg 91%
    21:00 +13°C° 0.3 mm 1 mps 583 mmHg 90%
    22:00 +13°C° 0.3 mm 1 mps 583 mmHg 89%
    23:00 +13°C° 0.1 mm 1 mps 583 mmHg 89%

    Day after tomorrow, 27 May, Sunday

    Time Temperature Precipitation Wind Pressure Humidity
    00:00 +13°C° 0.1 mm 1 mps 583 mmHg 88%
    01:00 +13°C° 0.1 mm 1 mps 582 mmHg 87%
    02:00 +13°C° 0.1 mm 1 mps 582 mmHg 88%
    03:00 +13°C° 0.1 mm 1 mps 582 mmHg 88%
    04:00 +13°C° 0.1 mm 1 mps 582 mmHg 89%
    05:00 +13°C° 0.1 mm 1 mps 582 mmHg 88%
    06:00 +14°C° 0.1 mm 1 mps 583 mmHg 87%
    07:00 +14°C° 0.1 mm 1 mps 583 mmHg 86%
    08:00 +15°C° 0.1 mm 1 mps 584 mmHg 83%
    09:00 +16°C° 0.1 mm 2 mps 584 mmHg 80%
    10:00 +16°C° 0.1 mm 2 mps 585 mmHg 78%
    11:00 +17°C° 0.1 mm 2 mps 585 mmHg 76%
    12:00 +17°C° 0.1 mm 2 mps 585 mmHg 74%
    13:00 +18°C° 0.1 mm 2 mps 585 mmHg 72%
    14:00 +17°C° 0.5 mm 2 mps 584 mmHg 75%
    15:00 +17°C° 0.5 mm 2 mps 583 mmHg 78%
    16:00 +16°C° 0.5 mm 1 mps 583 mmHg 81%
    17:00 +16°C° 0.6 mm 1 mps 583 mmHg 83%
    18:00 +15°C° 0.6 mm 1 mps 583 mmHg 85%
    19:00 +14°C° 0.6 mm 1 mps 583 mmHg 87%
    20:00 +14°C° 0.5 mm 1 mps 583 mmHg 86%
    21:00 +14°C° 0.5 mm 1 mps 584 mmHg 86%
    22:00 +14°C° 0.5 mm 1 mps 584 mmHg 85%
    23:00 +14°C° 0.3 mm 1 mps 584 mmHg 86%

    28 May, Monday

    Time Temperature Precipitation Wind Pressure Humidity
    00:00 +14°C° 0.3 mm 1 mps 583 mmHg 87%
    01:00 +13°C° 0.3 mm 1 mps 583 mmHg 88%
    02:00 +13°C° 0.1 mm 1 mps 583 mmHg 88%
    03:00 +13°C° 0.1 mm 1 mps 582 mmHg 88%
    04:00 +13°C° 0.1 mm 1 mps 582 mmHg 89%
    05:00 +13°C° 0.2 mm 1 mps 583 mmHg 88%
    06:00 +14°C° 0.2 mm 1 mps 583 mmHg 88%
    07:00 +14°C° 0.2 mm 1 mps 583 mmHg 87%
    08:00 +15°C° 0.5 mm 1 mps 584 mmHg 84%
    09:00 +16°C° 0.5 mm 1 mps 585 mmHg 82%
    10:00 +18°C° 0.5 mm 1 mps 586 mmHg 79%
    11:00 +16°C° 1.2 mm 1 mps 585 mmHg 80%
    12:00 +16°C° 1.2 mm 1 mps 585 mmHg 81%
    13:00 +16°C° 1.2 mm 2 mps 584 mmHg 82%
    14:00 +16°C° 0.4 mm 2 mps 584 mmHg 82%
    15:00 +17°C° 0.4 mm 2 mps 584 mmHg 82%
    16:00 +17°C° 0.4 mm 2 mps 584 mmHg 81%
    17:00 +16°C° 0.5 mm 1 mps 583 mmHg 85%
    18:00 +15°C° 0.5 mm 1 mps 583 mmHg 89%
    19:00 +14°C° 0.5 mm 1 mps 583 mmHg 92%
    20:00 +14°C° 0.7 mm 1 mps 584 mmHg 92%
    21:00 +13°C° 0.7 mm 1 mps 584 mmHg 92%
    22:00 +13°C° 0.7 mm 1 mps 584 mmHg 91%
    23:00 +13°C° 0.6 mm 1 mps 584 mmHg 91%

    29 May, Tuesday

    Time Temperature Precipitation Wind Pressure Humidity
    00:00 +13°C° 0.6 mm 1 mps 583 mmHg 90%
    01:00 +13°C° 0.6 mm 1 mps 583 mmHg 89%
    02:00 +13°C° 0.6 mm 1 mps 583 mmHg 90%
    03:00 +13°C° 0.6 mm 1 mps 583 mmHg 90%
    04:00 +13°C° 0.6 mm 1 mps 582 mmHg 90%
    05:00 +13°C° 0.4 mm 1 mps 583 mmHg 90%
    06:00 +13°C° 0.4 mm 1 mps 583 mmHg 89%
    07:00 +14°C° 0.4 mm 1 mps 584 mmHg 89%
    08:00 +15°C° 0.1 mm 1 mps 584 mmHg 85%
    09:00 +16°C° 0.1 mm 1 mps 585 mmHg 80%
    10:00 +17°C° 0.1 mm 2 mps 586 mmHg 76%
    11:00 +18°C° 0.2 mm 2 mps 586 mmHg 75%
    12:00 +18°C° 0.2 mm 2 mps 585 mmHg 74%
    13:00 +18°C° 0.2 mm 2 mps 585 mmHg 74%
    14:00 +18°C° 0.7 mm 2 mps 584 mmHg 76%
    15:00 +17°C° 0.7 mm 2 mps 584 mmHg 79%
    16:00 +18°C° 0.7 mm 1 mps 583 mmHg 81%
    17:00 +16°C° 0.5 mm 1 mps 583 mmHg 85%
    18:00 +15°C° 0.5 mm 1 mps 583 mmHg 89%
    19:00 +13°C° 0.5 mm 0 mps 583 mmHg 93%
    20:00 +13°C° 0.4 mm 0 mps 583 mmHg 94%
    21:00 +13°C° 0.4 mm 0 mps 583 mmHg 94%
    22:00 +12°C° 0.4 mm 0 mps 584 mmHg 94%
    23:00 +12°C° 0.2 mm 0 mps 583 mmHg 94%

    30 May, Wednesday

    Time Temperature Precipitation Wind Pressure Humidity
    00:00 +12°C° 0.2 mm 0 mps 583 mmHg 93%
    01:00 +12°C° 0.2 mm 0 mps 583 mmHg 92%
    02:00 +13°C° 0.2 mm 1 mps 582 mmHg 91%
    03:00 +13°C° 0.2 mm 1 mps 582 mmHg 90%
    04:00 +12°C° 0.2 mm 1 mps 582 mmHg 89%
    05:00 +13°C° 0.1 mm 1 mps 582 mmHg 86%
    06:00 +13°C° 0.1 mm 1 mps 583 mmHg 84%
    07:00 +14°C° 0.1 mm 1 mps 583 mmHg 81%
    08:00 +16°C° 0.1 mm 1 mps 584 mmHg 75%
    09:00 +18°C° 0.1 mm 1 mps 585 mmHg 69%
    10:00 +19°C° 0.1 mm 2 mps 586 mmHg 63%
    11:00 +19°C° 0.4 mm 2 mps 586 mmHg 63%
    12:00 +20°C° 0.4 mm 2 mps 585 mmHg 64%
    13:00 +20°C° 0.4 mm 2 mps 585 mmHg 64%
    14:00 +19°C° 1 mm 2 mps 584 mmHg 68%
    15:00 +19°C° 1 mm 1 mps 583 mmHg 73%
    16:00 +18°C° 1 mm 1 mps 582 mmHg 77%
    17:00 +16°C° 0.9 mm 1 mps 582 mmHg 82%
    18:00 +15°C° 0.9 mm 1 mps 582 mmHg 86%
    19:00 +13°C° 0.9 mm 0 mps 582 mmHg 91%
    20:00 +13°C° 0.4 mm 0 mps 583 mmHg 91%
    21:00 +13°C° 0.4 mm 0 mps 583 mmHg 91%
    22:00 +13°C° 0.4 mm 0 mps 583 mmHg 91%
    23:00 +13°C° 0.3 mm 0 mps 583 mmHg 90%
    Show more